Find Starlink 33690

NORAD ID: 63406 Int'l Des: 2025-065 Owner: SPXS Country: US Constellation: starlink operational
LEOCIRCULAR

当前视图

正在加载3D地球...

About Starlink 33690

Starlink 33690 (NORAD 63406) is a starlink constellation satellite (v2 mini) launched Mar 31, 2025 by SPXS of US. It operates in LEO, CIRCULAR orbit with a mass of 575.00 kg.

关于 Starlink 33690

正在加载描述...

即将过境

Passes for default location (London). Set your location on the main map for personalized predictions.

高度历史

Loading altitude history...

两行轨道根数

1 63406U 25065H 26193.82578189 .00019130 00000-0 70227-3 0 9991
2 63406 42.9972 116.4224 0000472 227.7980 132.2832 15.27608352 72023
Epoch: Jul 12, 2026 • Age: 5 hours

当前状态

高度 486.0 km
远地点 / 近地点 N/A
速度 7.63 km/s
星下点 41.76°N, 82.59°W
发射日期 Mar 31, 2025
运行时间 1.2 years
类型 internet

技术详情

分类 Payload
质量 575.00 kg
干质量 530.00 kg
总质量 575.00 kg
长度 0.30 m
直径 4.10 m
跨度 29.00 m
形状 Box + pan
制造商 SPXS
平台类型 Starlink V2MO
阶段状态 In Orbit
所有者/国家 SPXS/US

Most Searched